sat.trackr.live / text

‹ back to catalog

STARLINK-31415

NORAD 59419 · 2024-064X

PAYLOAD ACTIVE UNKNOWN

§ Identity

Operator
Country
US
Launch date
2024-04-05
Launch site
AFETR
Launch vehicle
Mass (kg)
RCS (m²)

Purposes: comms

External: N2YO · Heavens-Above · Gunter

§ Orbital elements

Epoch: 2026-09-21T16:04:19.457760Z

Period
94.27 min
Inclination
43.0051°
Eccentricity
0.0001320
Mean motion
15.27580117 rev/d
Perigee alt
482.1 km
Apogee alt
484.0 km
Semi-major
6,861.2 km
B*
2.9338e-5
RAAN
29.7920°
Arg perigee
295.0796°
Mean anomaly
64.9919°
Rev number
13,919

§ Raw data

STARLINK-314151 59419U 24064X   26264.66966965  .00000545  00000+0  29338-4 0  99992 59419  43.0051  29.7920 0001320 295.0796  64.9919 15.27580117139194

JSON: /api/v1/satellites/59419 · /tle

For live sub-satellite position, see the globe view (requires WebGL).

§ Visibility from observer

Set your observer location to see the next 7 days of passes ≥ 10°. The values pass through the URL so the page stays shareable.

No JS? Fill the form by hand. The geolocation button needs JavaScript.